Change the Weather History Date:

Wednesday, April 4, 2012

  Actual Average Record
Temperature  
Mean Temperature 57 °F 47 °F  
Max Temperature 67 °F 57 °F 82 °F (1976)
Min Temperature 47 °F 37 °F 23 °F (1975)
Degree Days  
Heating Degree Days 8 18  
Month to date heating degree days 26 75  
Since 1 July heating degree days 4277 5245  
Cooling Degree Days 0 0  
Month to date cooling degree days 1 0  
Year to date cooling degree days 38 1  
Growing Degree Days 9 (Base 50)    
Moisture  
Dew Point 41 °F    
Average Humidity 52    
Maximum Humidity 77    
Minimum Humidity 27    
Precipitation  
Precipitation 0.00 in 0.11 in 1.43 in (1968)
Month to date precipitation T 0.48  
Year to date precipitation 7.16 7.97  
Sea Level Pressure  
Sea Level Pressure 29.83 in    
Wind  
Wind Speed 11 mph (ENE)    
Max Wind Speed 20 mph    
Max Gust Speed 28 mph    
Visibility 8 miles    
Events      
T = Trace of Precipitation, MM = Missing Value Source: NWS Daily Summary

Daily Weather History Graph

Daily Weather History Graph

Search for Another Location

Airport or City:

Trip Planner

Search our weather history database for the weather conditions in past years. The results will help you decide how hot, cold, wet, or windy it might be!

Date:

Astronomy

Apr. 04, 2012 Rise Set
Actual Time 7:19 AM EDT 8:09 PM EDT
Civil Twilight 6:52 AM EDT 8:37 PM EDT
Nautical Twilight 6:19 AM EDT 9:09 PM EDT
Astronomical Twilight 5:45 AM EDT 9:43 PM EDT
Moon 6:02 PM EDT (4/4) 5:41 AM EDT (4/4)
Length of Visible Light 13h 44m
Length of Day
12h 49m
Waxing Gibbous, 93% of the Moon is Illuminated
Apr 4
Waxing Gibbous
Apr 6
Full
Apr 13
Last Quarter
Apr 21
New
Apr 29
First Quarter

Hourly Weather History & Observations

Time (EDT) Temp. Dew Point Humidity Pressure Visibility Wind Dir Wind Speed Gust Speed Precip Events Conditions
12:53 AM 62.1 °F 51.1 °F 67% 29.82 in 10.0 mi ENE 8.1 mph - N/A   Scattered Clouds
1:53 AM 59.0 °F 50.0 °F 72% 29.83 in 9.0 mi NE 10.4 mph - N/A   Clear
2:53 AM 57.9 °F 48.0 °F 70% 29.82 in 7.0 mi East 10.4 mph - N/A   Mostly Cloudy
3:53 AM 55.9 °F 48.9 °F 77% 29.82 in 7.0 mi ENE 5.8 mph - N/A   Partly Cloudy
4:53 AM 55.0 °F 46.9 °F 74% 29.81 in 6.0 mi NE 12.7 mph - N/A   Haze
5:53 AM 54.0 °F 46.9 °F 77% 29.81 in 6.0 mi NE 9.2 mph - N/A   Haze
6:53 AM 54.0 °F 46.0 °F 75% 29.83 in 6.0 mi ENE 11.5 mph - N/A   Haze
7:53 AM 54.0 °F 44.1 °F 69% 29.85 in 6.0 mi ENE 10.4 mph - N/A   Haze
8:53 AM 53.1 °F 44.1 °F 71% 29.86 in 6.0 mi NE 11.5 mph - N/A   Haze
9:53 AM 53.1 °F 43.0 °F 69% 29.86 in 6.0 mi ENE 11.5 mph - N/A   Haze
11:53 AM 55.9 °F 43.0 °F 62% 29.88 in 7.0 mi ENE 13.8 mph 19.6 mph N/A   Mostly Cloudy
12:53 PM 55.9 °F 41.0 °F 57% 29.89 in 9.0 mi ENE 10.4 mph - N/A   Mostly Cloudy
1:53 PM 62.1 °F 43.0 °F 50% 29.85 in 1.8 mi East 15.0 mph 27.6 mph N/A   Haze
2:08 PM 62.6 °F 42.8 °F 48% 29.86 in 4.0 mi ENE 15.0 mph 21.9 mph N/A   Haze
2:53 PM 64.0 °F 43.0 °F 46% 29.83 in 4.0 mi ENE 16.1 mph 19.6 mph N/A   Haze
3:53 PM 66.0 °F 42.1 °F 42% 29.82 in 10.0 mi ENE 12.7 mph - N/A   Mostly Cloudy
4:53 PM 66.0 °F 37.0 °F 34% 29.80 in 10.0 mi NE 11.5 mph - N/A   Clear
5:53 PM 64.9 °F 32.0 °F 29% 29.79 in 10.0 mi ENE 12.7 mph - N/A   Clear
6:53 PM 63.0 °F 28.0 °F 27% 29.79 in 10.0 mi NE 15.0 mph - N/A   Clear
7:53 PM 57.9 °F 30.9 °F 36% 29.81 in 10.0 mi ENE 8.1 mph - N/A   Clear
8:53 PM 54.0 °F 32.0 °F 43% 29.83 in 10.0 mi ENE 6.9 mph - N/A   Clear
9:53 PM 52.0 °F 32.0 °F 47% 29.84 in 10.0 mi ENE 6.9 mph - N/A   Clear
10:53 PM 52.0 °F 32.0 °F 47% 29.84 in 10.0 mi ENE 9.2 mph - N/A   Clear
11:53 PM 48.9 °F 32.0 °F 52% 29.85 in 10.0 mi East 8.1 mph - N/A   Clear